Time,TemperatureF,DewpointF,PressureIn,WindDirection,WindDirectionDegrees,WindSpeedMPH,WindSpeedGustMPH,Humidity,HourlyPrecipIn,Conditions,Clouds,dailyrainin,SoftwareType,DateUTC
2013-04-29 00:00:00,76.2,51.4,29.95,SSE,158,3.0,12.0,42,0.00,CLR,SKC,0.00,WeatherDisplay:10.37,2013-04-28 22:00:00,
2013-04-29 00:10:00,75.9,51.2,29.95,SSE,153,6.0,13.0,42,0.00,CLR,SKC,0.00,WeatherDisplay:10.37,2013-04-28 22:10:00,
2013-04-29 00:20:00,75.5,52.1,29.95,SSE,148,1.0,12.0,44,0.00,CLR,SKC,0.00,WeatherDisplay:10.37,2013-04-28 22:20:00,
2013-04-29 00:30:00,75.4,51.3,29.95,SSE,149,5.0,10.0,43,0.00,CLR,SKC,0.00,WeatherDisplay:10.37,2013-04-28 22:30:00,
2013-04-29 00:40:00,75.5,51.5,29.94,SSE,157,2.0,8.0,43,0.00,CLR,SKC,0.00,WeatherDisplay:10.37,2013-04-28 22:40:00,
2013-04-29 00:50:00,75.9,51.2,29.95,SE,136,3.0,12.0,42,0.00,CLR,SKC,0.00,WeatherDisplay:10.37,2013-04-28 22:50:00,
2013-04-29 01:00:00,75.8,50.5,29.95,SSE,163,5.0,9.0,41,0.00,CLR,SKC,0.00,WeatherDisplay:10.37,2013-04-28 23:00:00,
2013-04-29 01:10:00,76.4,50.3,29.95,South,173,5.0,14.0,40,0.00,CLR,SKC,0.00,WeatherDisplay:10.37,2013-04-28 23:10:00,
2013-04-29 01:20:00,76.5,50.4,29.95,SSE,156,2.0,10.0,40,0.00,CLR,SKC,0.00,WeatherDisplay:10.37,2013-04-28 23:20:00,
2013-04-29 01:30:00,76.3,49.5,29.95,SE,141,3.0,14.0,39,0.00,CLR,SKC,0.00,WeatherDisplay:10.37,2013-04-28 23:30:00,
2013-04-29 01:40:00,76.4,49.6,29.95,South,169,6.0,12.0,39,0.00,CLR,SKC,0.00,WeatherDisplay:10.37,2013-04-28 23:40:00,
2013-04-29 01:50:00,76.3,48.8,29.95,SE,132,5.0,10.0,38,0.00,CLR,SKC,0.00,WeatherDisplay:10.37,2013-04-28 23:50:00,
2013-04-29 02:00:00,76.3,48.1,29.95,SSE,150,6.0,10.0,37,0.00,CLR,SKC,0.00,WeatherDisplay:10.37,2013-04-29 00:00:00,
2013-04-29 02:10:00,76.2,48.0,29.95,SSE,152,7.0,12.0,37,0.00,CLR,SKC,0.00,WeatherDisplay:10.37,2013-04-29 00:10:00,
2013-04-29 02:20:00,76.5,48.3,29.95,SSE,153,7.0,17.0,37,0.00,CLR,SKC,0.00,WeatherDisplay:10.37,2013-04-29 00:20:00,
2013-04-29 02:30:00,76.7,48.5,29.95,SSE,148,7.0,15.0,37,0.00,CLR,SKC,0.00,WeatherDisplay:10.37,2013-04-29 00:30:00,
2013-04-29 02:40:00,75.6,49.6,29.95,SSE,164,8.0,15.0,40,0.00,CLR,SKC,0.00,WeatherDisplay:10.37,2013-04-29 00:40:00,
2013-04-29 02:50:00,75.9,49.2,29.94,SSE,166,3.0,13.0,39,0.00,CLR,SKC,0.00,WeatherDisplay:10.37,2013-04-29 00:50:00,
2013-04-29 03:00:00,75.6,49.6,29.94,SSE,162,5.0,15.0,40,0.00,CLR,SKC,0.00,WeatherDisplay:10.37,2013-04-29 01:00:00,
2013-04-29 03:10:00,75.6,50.8,29.94,South,180,5.0,13.0,42,0.00,CLR,SKC,0.00,WeatherDisplay:10.37,2013-04-29 01:10:00,
2013-04-29 03:20:00,73.7,51.1,29.94,South,169,7.0,14.0,45,0.00,CLR,SKC,0.00,WeatherDisplay:10.37,2013-04-29 01:20:00,
2013-04-29 03:30:00,73.9,51.2,29.94,SE,140,7.0,14.0,45,0.00,CLR,SKC,0.00,WeatherDisplay:10.37,2013-04-29 01:30:00,
2013-04-29 03:40:00,73.1,51.6,29.93,SSE,151,7.0,17.0,47,0.00,CLR,SKC,0.00,WeatherDisplay:10.37,2013-04-29 01:40:00,
2013-04-29 03:50:00,72.5,52.2,29.94,SSE,154,9.0,18.0,49,0.00,CLR,SKC,0.00,WeatherDisplay:10.37,2013-04-29 01:50:00,
2013-04-29 04:00:00,71.5,52.4,29.94,SSE,158,8.0,16.0,51,0.00,CLR,SKC,0.00,WeatherDisplay:10.37,2013-04-29 02:00:00,
2013-04-29 04:10:00,71.3,52.8,29.94,SSE,158,7.0,17.0,52,0.00,CLR,SKC,0.00,WeatherDisplay:10.37,2013-04-29 02:10:00,
2013-04-29 04:20:00,71.2,52.7,29.94,SSE,154,7.0,21.0,52,0.00,CLR,SKC,0.00,WeatherDisplay:10.37,2013-04-29 02:20:00,
2013-04-29 04:30:00,71.9,51.7,29.94,SSE,155,6.0,15.0,49,0.00,CLR,SKC,0.00,WeatherDisplay:10.37,2013-04-29 02:30:00,
2013-04-29 04:40:00,73.2,51.1,29.94,SSE,147,6.0,14.0,46,0.00,CLR,SKC,0.00,WeatherDisplay:10.37,2013-04-29 02:40:00,
2013-04-29 04:50:00,73.5,50.9,29.95,SE,137,1.0,12.0,45,0.00,CLR,SKC,0.00,WeatherDisplay:10.37,2013-04-29 02:50:00,
2013-04-29 05:00:00,72.6,51.8,29.96,NNE,21,1.0,6.0,48,0.00,CLR,SKC,0.00,WeatherDisplay:10.37,2013-04-29 03:00:00,
2013-04-29 05:10:00,71.2,52.1,29.96,North,11,0.0,6.0,51,0.00,CLR,SKC,0.00,WeatherDisplay:10.37,2013-04-29 03:10:00,
2013-04-29 05:20:00,70.5,52.1,29.96,NNE,20,0.0,1.0,52,0.00,CLR,SKC,0.00,WeatherDisplay:10.37,2013-04-29 03:20:00,
2013-04-29 05:30:00,69.3,52.9,29.96,North,356,1.0,6.0,56,0.00,CLR,SKC,0.00,WeatherDisplay:10.37,2013-04-29 03:30:00,
2013-04-29 05:40:00,68.7,52.9,29.97,WNW,289,0.0,4.0,57,0.00,CLR,SKC,0.00,WeatherDisplay:10.37,2013-04-29 03:40:00,
2013-04-29 05:50:00,68.3,53.4,29.97,North,355,0.0,7.0,59,0.00,CLR,SKC,0.00,WeatherDisplay:10.37,2013-04-29 03:50:00,
2013-04-29 06:00:00,67.8,53.4,29.98,NNW,341,0.0,4.0,60,0.00,CLR,SKC,0.00,WeatherDisplay:10.37,2013-04-29 04:00:00,
2013-04-29 06:10:00,67.8,53.4,29.98,SSW,201,0.0,4.0,60,0.00,CLR,SKC,0.00,WeatherDisplay:10.37,2013-04-29 04:10:00,
2013-04-29 06:20:00,67.6,53.7,29.99,SSW,209,0.0,3.0,61,0.00,CLR,SKC,0.00,WeatherDisplay:10.37,2013-04-29 04:20:00,
2013-04-29 06:30:00,67.1,53.2,29.98,SSE,168,1.0,5.0,61,0.00,CLR,SKC,0.00,WeatherDisplay:10.37,2013-04-29 04:30:00,
2013-04-29 06:40:00,66.7,53.7,29.98,SE,129,0.0,5.0,63,0.00,CLR,SKC,0.00,WeatherDisplay:10.37,2013-04-29 04:40:00,
2013-04-29 06:50:00,66.4,53.8,29.98,SE,128,0.0,2.0,64,0.00,CLR,SKC,0.00,WeatherDisplay:10.37,2013-04-29 04:50:00,
2013-04-29 07:00:00,66.4,53.4,29.98,SE,128,0.0,2.0,63,0.00,CLR,SKC,0.00,WeatherDisplay:10.37,2013-04-29 05:00:00,
2013-04-29 07:10:00,67.4,53.9,29.98,SE,128,1.0,3.0,62,0.00,CLR,SKC,0.00,WeatherDisplay:10.37,2013-04-29 05:10:00,
2013-04-29 07:20:00,68.0,54.0,29.98,SE,128,0.0,2.0,61,0.00,CLR,SKC,0.00,WeatherDisplay:10.37,2013-04-29 05:20:00,
2013-04-29 07:30:00,68.4,53.5,29.98,NE,37,1.0,4.0,59,0.00,CLR,SKC,0.00,WeatherDisplay:10.37,2013-04-29 05:30:00,
2013-04-29 07:40:00,69.5,53.1,29.98,ENE,69,2.0,9.0,56,0.00,CLR,SKC,0.00,WeatherDisplay:10.37,2013-04-29 05:40:00,
2013-04-29 07:50:00,69.6,53.7,29.98,North,5,0.0,3.0,57,0.00,CLR,SKC,0.00,WeatherDisplay:10.37,2013-04-29 05:50:00,
2013-04-29 08:00:00,70.0,54.5,29.97,ENE,75,0.0,9.0,58,0.00,CLR,SKC,0.00,WeatherDisplay:10.37,2013-04-29 06:00:00,
2013-04-29 08:10:00,72.7,47.0,29.97,SE,136,3.0,14.0,40,0.00,CLR,SKC,0.00,WeatherDisplay:10.37,2013-04-29 06:10:00,
2013-04-29 08:20:00,75.6,46.0,29.97,SE,141,1.0,10.0,35,0.00,CLR,SKC,0.00,WeatherDisplay:10.37,2013-04-29 06:20:00,
2013-04-29 08:30:00,77.1,45.0,29.97,SSE,151,7.0,12.0,32,0.00,CLR,SKC,0.00,WeatherDisplay:10.37,2013-04-29 06:30:00,
2013-04-29 08:40:00,77.8,47.9,29.98,SSE,163,1.0,9.0,35,0.00,CLR,SKC,0.00,WeatherDisplay:10.37,2013-04-29 06:40:00,
2013-04-29 08:50:00,78.2,48.3,29.98,East,89,1.0,4.0,35,0.00,CLR,SKC,0.00,WeatherDisplay:10.37,2013-04-29 06:50:00,
2013-04-29 09:00:00,78.7,46.3,29.98,SSE,158,2.0,12.0,32,0.00,CLR,SKC,0.00,WeatherDisplay:10.37,2013-04-29 07:00:00,
2013-04-29 09:10:00,79.1,45.0,29.98,SSE,151,2.0,12.0,30,0.00,CLR,SKC,0.00,WeatherDisplay:10.37,2013-04-29 07:10:00,
2013-04-29 09:20:00,79.3,45.1,29.99,SSE,154,2.0,9.0,30,0.00,CLR,SKC,0.00,WeatherDisplay:10.37,2013-04-29 07:20:00,
2013-04-29 09:30:00,79.3,43.4,29.98,SE,140,6.0,13.0,28,0.00,CLR,SKC,0.00,WeatherDisplay:10.37,2013-04-29 07:30:00,
2013-04-29 09:40:00,79.0,44.0,29.98,SSE,154,6.0,14.0,29,0.00,CLR,SKC,0.00,WeatherDisplay:10.37,2013-04-29 07:40:00,
2013-04-29 09:50:00,79.0,44.0,29.98,SSE,156,7.0,14.0,29,0.00,CLR,SKC,0.00,WeatherDisplay:10.37,2013-04-29 07:50:00,
2013-04-29 10:00:00,79.1,45.0,29.98,SSE,162,5.0,15.0,30,0.00,CLR,SKC,0.00,WeatherDisplay:10.37,2013-04-29 08:00:00,
2013-04-29 10:10:00,79.4,45.3,29.98,SE,139,3.0,14.0,30,0.00,CLR,SKC,0.00,WeatherDisplay:10.37,2013-04-29 08:10:00,
2013-04-29 10:20:00,79.8,45.6,29.98,SSE,165,6.0,12.0,30,0.00,CLR,SKC,0.00,WeatherDisplay:10.37,2013-04-29 08:20:00,
2013-04-29 10:30:00,79.9,45.7,29.98,SSE,156,3.0,14.0,30,0.00,CLR,SKC,0.00,WeatherDisplay:10.37,2013-04-29 08:30:00,
2013-04-29 10:40:00,80.2,45.9,29.98,SSE,147,5.0,14.0,30,0.00,CLR,SKC,0.00,WeatherDisplay:10.37,2013-04-29 08:40:00,
2013-04-29 10:50:00,80.2,45.9,29.99,SSE,147,6.0,13.0,30,0.00,CLR,SKC,0.00,WeatherDisplay:10.37,2013-04-29 08:50:00,
2013-04-29 11:00:00,80.3,46.9,29.99,SSE,155,5.0,14.0,31,0.00,CLR,SKC,0.00,WeatherDisplay:10.37,2013-04-29 09:00:00,
2013-04-29 11:10:00,80.4,47.0,29.99,South,173,5.0,14.0,31,0.00,CLR,SKC,0.00,WeatherDisplay:10.37,2013-04-29 09:10:00,
2013-04-29 11:20:00,80.4,47.0,29.99,SSE,148,7.0,17.0,31,0.00,CLR,SKC,0.00,WeatherDisplay:10.37,2013-04-29 09:20:00,
2013-04-29 11:30:00,80.4,46.1,29.99,SE,139,8.0,15.0,30,0.00,CLR,SKC,0.00,WeatherDisplay:10.37,2013-04-29 09:30:00,
2013-04-29 11:40:00,80.2,45.9,29.99,SSE,164,9.0,17.0,30,0.00,CLR,SKC,0.00,WeatherDisplay:10.37,2013-04-29 09:40:00,
2013-04-29 11:50:00,80.5,47.0,29.99,SE,139,10.0,24.0,31,0.00,CLR,SKC,0.00,WeatherDisplay:10.37,2013-04-29 09:50:00,
2013-04-29 12:00:00,80.5,46.2,30.00,SSE,159,9.0,20.0,30,0.00,CLR,SKC,0.00,WeatherDisplay:10.37,2013-04-29 10:00:00,
2013-04-29 12:10:00,80.3,46.0,29.99,SSE,162,12.0,20.0,30,0.00,CLR,SKC,0.00,WeatherDisplay:10.37,2013-04-29 10:10:00,
2013-04-29 12:20:00,80.1,45.9,29.99,SSE,163,12.0,20.0,30,0.00,CLR,SKC,0.00,WeatherDisplay:10.37,2013-04-29 10:20:00,
2013-04-29 12:30:00,80.5,45.3,29.99,South,178,10.0,20.0,29,0.00,CLR,SKC,0.00,WeatherDisplay:10.37,2013-04-29 10:30:00,
2013-04-29 12:40:00,80.6,46.3,29.99,SE,146,10.0,20.0,30,0.00,CLR,SKC,0.00,WeatherDisplay:10.37,2013-04-29 10:40:00,
2013-04-29 12:50:00,80.8,45.6,29.99,SSE,152,9.0,18.0,29,0.00,CLR,SKC,0.00,WeatherDisplay:10.37,2013-04-29 10:50:00,
2013-04-29 13:00:00,80.8,45.6,29.99,SSE,154,9.0,18.0,29,0.00,CLR,SKC,0.00,WeatherDisplay:10.37,2013-04-29 11:00:00,
2013-04-29 13:10:00,81.0,46.7,29.99,SE,146,8.0,18.0,30,0.00,CLR,SKC,0.00,WeatherDisplay:10.37,2013-04-29 11:10:00,
2013-04-29 13:20:00,81.3,46.0,29.99,SSE,154,7.0,15.0,29,0.00,CLR,SKC,0.00,WeatherDisplay:10.37,2013-04-29 11:20:00,
2013-04-29 13:30:00,81.5,46.2,29.99,SSE,151,7.0,14.0,29,0.00,CLR,SKC,0.00,WeatherDisplay:10.37,2013-04-29 11:30:00,
2013-04-29 13:40:00,81.6,47.1,29.99,South,169,3.0,15.0,30,0.00,CLR,SKC,0.00,WeatherDisplay:10.37,2013-04-29 11:40:00,
2013-04-29 13:50:00,81.3,46.9,29.98,SSE,160,5.0,14.0,30,0.00,CLR,SKC,0.00,WeatherDisplay:10.37,2013-04-29 11:50:00,
2013-04-29 14:00:00,81.6,46.3,29.98,SSE,160,6.0,12.0,29,0.00,CLR,SKC,0.00,WeatherDisplay:10.37,2013-04-29 12:00:00,
2013-04-29 14:10:00,82.2,46.7,29.98,South,177,5.0,13.0,29,0.00,CLR,SKC,0.00,WeatherDisplay:10.37,2013-04-29 12:10:00,
2013-04-29 14:20:00,82.2,47.6,29.98,SSE,166,2.0,12.0,30,0.00,CLR,SKC,0.00,WeatherDisplay:10.37,2013-04-29 12:20:00,
2013-04-29 14:30:00,83.0,45.6,29.98,South,177,6.0,12.0,27,0.00,CLR,SKC,0.00,WeatherDisplay:10.37,2013-04-29 12:30:00,
2013-04-29 14:40:00,83.0,44.6,29.98,SSE,167,6.0,13.0,26,0.00,CLR,SKC,0.00,WeatherDisplay:10.37,2013-04-29 12:40:00,
2013-04-29 14:50:00,83.1,45.7,29.98,SE,128,5.0,10.0,27,0.00,CLR,SKC,0.00,WeatherDisplay:10.37,2013-04-29 12:50:00,
2013-04-29 15:00:00,82.9,45.4,29.97,SSE,153,5.0,14.0,27,0.00,CLR,SKC,0.00,WeatherDisplay:10.37,2013-04-29 13:00:00,
2013-04-29 15:10:00,82.5,44.1,29.97,SSE,164,6.0,12.0,26,0.00,CLR,SKC,0.00,WeatherDisplay:10.37,2013-04-29 13:10:00,
2013-04-29 15:20:00,82.3,45.0,29.97,SSE,154,3.0,15.0,27,0.00,CLR,SKC,0.00,WeatherDisplay:10.37,2013-04-29 13:20:00,
2013-04-29 15:30:00,82.3,45.9,29.97,SSE,164,3.0,12.0,28,0.00,CLR,SKC,0.00,WeatherDisplay:10.37,2013-04-29 13:30:00,
2013-04-29 15:40:00,81.6,46.2,29.96,SSE,168,3.0,10.0,29,0.00,CLR,SKC,0.00,WeatherDisplay:10.37,2013-04-29 13:40:00,
2013-04-29 15:50:00,80.8,45.5,29.96,SSE,167,6.0,12.0,29,0.00,CLR,SKC,0.00,WeatherDisplay:10.37,2013-04-29 13:50:00,
2013-04-29 16:00:00,80.6,45.4,29.96,South,174,6.0,16.0,29,0.00,CLR,SKC,0.00,WeatherDisplay:10.37,2013-04-29 14:00:00,
2013-04-29 16:10:00,81.0,44.8,29.96,SSE,154,7.0,14.0,28,0.00,CLR,SKC,0.00,WeatherDisplay:10.37,2013-04-29 14:10:00,
2013-04-29 16:20:00,81.0,45.7,29.97,SE,142,6.0,13.0,29,0.00,CLR,SKC,0.00,WeatherDisplay:10.37,2013-04-29 14:20:00,
2013-04-29 16:30:00,80.9,44.7,29.96,SE,130,3.0,20.0,28,0.00,CLR,SKC,0.00,WeatherDisplay:10.37,2013-04-29 14:30:00,
2013-04-29 16:40:00,80.8,44.6,29.96,ESE,114,6.0,15.0,28,0.00,CLR,SKC,0.00,WeatherDisplay:10.37,2013-04-29 14:40:00,
2013-04-29 16:50:00,81.3,45.1,29.96,South,175,3.0,13.0,28,0.00,CLR,SKC,0.00,WeatherDisplay:10.37,2013-04-29 14:50:00,
2013-04-29 17:00:00,80.9,45.6,29.97,SSE,160,8.0,14.0,29,0.00,CLR,SKC,0.00,WeatherDisplay:10.37,2013-04-29 15:00:00,
2013-04-29 17:10:00,80.4,45.2,29.97,SSE,160,6.0,14.0,29,0.00,CLR,SKC,0.00,WeatherDisplay:10.37,2013-04-29 15:10:00,
2013-04-29 17:20:00,79.8,45.6,29.97,South,173,6.0,13.0,30,0.00,CLR,SKC,0.00,WeatherDisplay:10.37,2013-04-29 15:20:00,
2013-04-29 17:30:00,79.2,45.9,29.97,SSE,152,3.0,14.0,31,0.00,CLR,SKC,0.00,WeatherDisplay:10.37,2013-04-29 15:30:00,
2013-04-29 17:40:00,78.6,46.3,29.98,SSE,151,8.0,13.0,32,0.00,CLR,SKC,0.00,WeatherDisplay:10.37,2013-04-29 15:40:00,
2013-04-29 17:50:00,78.1,45.8,29.98,SSE,147,7.0,16.0,32,0.00,CLR,SKC,0.00,WeatherDisplay:10.37,2013-04-29 15:50:00,
2013-04-29 18:00:00,78.1,45.8,29.97,South,171,7.0,15.0,32,0.00,CLR,SKC,0.00,WeatherDisplay:10.37,2013-04-29 16:00:00,
2013-04-29 18:10:00,78.5,46.2,29.97,SSE,156,3.0,12.0,32,0.00,CLR,SKC,0.00,WeatherDisplay:10.37,2013-04-29 16:10:00,
2013-04-29 18:20:00,78.8,45.6,29.96,SSE,159,8.0,16.0,31,0.00,CLR,SKC,0.00,WeatherDisplay:10.37,2013-04-29 16:20:00,
2013-04-29 18:30:00,78.8,44.7,29.96,SSE,155,8.0,21.0,30,0.00,CLR,SKC,0.00,WeatherDisplay:10.37,2013-04-29 16:30:00,
2013-04-29 18:40:00,78.6,44.6,29.95,SSE,148,10.0,20.0,30,0.00,CLR,SKC,0.00,WeatherDisplay:10.37,2013-04-29 16:40:00,
2013-04-29 18:50:00,78.6,44.6,29.95,SSE,149,15.0,25.0,30,0.00,,SKC,0.00,WeatherDisplay:10.37,2013-04-29 16:50:00,
2013-04-29 19:00:00,78.4,44.4,29.94,SE,142,13.0,26.0,30,0.00,,SKC,0.00,WeatherDisplay:10.37,2013-04-29 17:00:00,
2013-04-29 19:10:00,77.9,44.0,29.94,SSE,153,14.0,23.0,30,0.00,CLR,SKC,0.00,WeatherDisplay:10.37,2013-04-29 17:10:00,
2013-04-29 19:20:00,77.6,43.7,29.94,SSE,165,15.0,24.0,30,0.00,,SKC,0.00,WeatherDisplay:10.37,2013-04-29 17:20:00,
2013-04-29 19:30:00,77.3,43.5,29.94,SSE,156,10.0,22.0,30,0.00,CLR,SKC,0.00,WeatherDisplay:10.37,2013-04-29 17:30:00,
2013-04-29 19:40:00,77.2,43.4,29.95,SSE,156,8.0,21.0,30,0.00,CLR,SKC,0.00,WeatherDisplay:10.37,2013-04-29 17:40:00,
2013-04-29 19:50:00,77.0,44.0,29.95,South,172,9.0,22.0,31,0.00,CLR,SKC,0.00,WeatherDisplay:10.37,2013-04-29 17:50:00,
2013-04-29 20:00:00,76.9,44.0,29.95,SSE,159,7.0,21.0,31,0.00,CLR,SKC,0.00,WeatherDisplay:10.37,2013-04-29 18:00:00,
2013-04-29 20:10:00,77.0,44.0,29.96,SSE,163,8.0,18.0,31,0.00,CLR,SKC,0.00,WeatherDisplay:10.37,2013-04-29 18:10:00,
2013-04-29 20:20:00,77.1,44.1,29.96,SSE,150,8.0,18.0,31,0.00,CLR,SKC,0.00,WeatherDisplay:10.37,2013-04-29 18:20:00,
2013-04-29 20:30:00,77.3,43.4,29.96,SSE,159,9.0,17.0,30,0.00,CLR,SKC,0.00,WeatherDisplay:10.37,2013-04-29 18:30:00,
2013-04-29 20:40:00,77.2,44.2,29.96,SSE,151,9.0,17.0,31,0.00,CLR,SKC,0.00,WeatherDisplay:10.37,2013-04-29 18:40:00,
2013-04-29 20:50:00,77.1,44.1,29.96,SSE,161,6.0,18.0,31,0.00,CLR,SKC,0.00,WeatherDisplay:10.37,2013-04-29 18:50:00,
2013-04-29 21:00:00,76.7,44.6,29.96,SSE,151,6.0,15.0,32,0.00,CLR,SKC,0.00,WeatherDisplay:10.37,2013-04-29 19:00:00,
2013-04-29 21:10:00,76.4,45.2,29.97,SSE,167,7.0,14.0,33,0.00,CLR,SKC,0.00,WeatherDisplay:10.37,2013-04-29 19:10:00,
2013-04-29 21:20:00,75.9,44.7,29.96,SE,138,1.0,12.0,33,0.00,CLR,SKC,0.00,WeatherDisplay:10.37,2013-04-29 19:20:00,
2013-04-29 21:30:00,76.5,44.4,29.97,SE,146,0.0,7.0,32,0.00,CLR,SKC,0.00,WeatherDisplay:10.37,2013-04-29 19:30:00,
2013-04-29 21:40:00,76.5,44.4,29.97,South,173,2.0,8.0,32,0.00,CLR,SKC,0.00,WeatherDisplay:10.37,2013-04-29 19:40:00,
2013-04-29 21:50:00,76.7,44.6,29.97,South,172,3.0,10.0,32,0.00,CLR,SKC,0.00,WeatherDisplay:10.37,2013-04-29 19:50:00,
2013-04-29 22:00:00,77.1,44.9,29.97,SE,137,2.0,12.0,32,0.00,CLR,SKC,0.00,WeatherDisplay:10.37,2013-04-29 20:00:00,
2013-04-29 22:10:00,77.3,44.3,29.97,SSE,148,2.0,12.0,31,0.00,CLR,SKC,0.00,WeatherDisplay:10.37,2013-04-29 20:10:00,
2013-04-29 22:20:00,77.6,44.5,29.97,SSE,148,3.0,12.0,31,0.00,CLR,SKC,0.00,WeatherDisplay:10.37,2013-04-29 20:20:00,
2013-04-29 22:30:00,77.7,44.6,29.96,SSE,157,3.0,14.0,31,0.00,CLR,SKC,0.00,WeatherDisplay:10.37,2013-04-29 20:30:00,
2013-04-29 22:40:00,77.9,44.8,29.96,SSE,154,5.0,12.0,31,0.00,CLR,SKC,0.00,WeatherDisplay:10.37,2013-04-29 20:40:00,
2013-04-29 22:50:00,78.2,43.4,29.96,SE,137,8.0,15.0,29,0.00,CLR,SKC,0.00,WeatherDisplay:10.37,2013-04-29 20:50:00,
2013-04-29 23:00:00,78.9,43.0,29.96,SSE,158,7.0,18.0,28,0.00,CLR,SKC,0.00,WeatherDisplay:10.37,2013-04-29 21:00:00,
2013-04-29 23:10:00,78.7,43.8,29.96,SSE,152,1.0,15.0,29,0.00,CLR,SKC,0.00,WeatherDisplay:10.37,2013-04-29 21:10:00,
2013-04-29 23:20:00,78.7,43.7,29.96,SE,145,2.0,12.0,29,0.00,CLR,SKC,0.00,WeatherDisplay:10.37,2013-04-29 21:20:00,
2013-04-29 23:30:00,78.5,43.6,29.96,South,176,1.0,13.0,29,0.00,CLR,SKC,0.00,WeatherDisplay:10.37,2013-04-29 21:30:00,
2013-04-29 23:40:00,78.7,43.8,29.96,SE,146,2.0,10.0,29,0.00,CLR,SKC,0.00,WeatherDisplay:10.37,2013-04-29 21:40:00,
2013-04-29 23:50:00,78.5,46.2,29.97,ESE,121,2.0,12.0,32,0.00,CLR,SKC,0.00,WeatherDisplay:10.37,2013-04-29 21:50:00,